[[{"header":{"parameterUnit":"m.s-1","parameterCategory":2,"la1":30.2991,"la2":30.254,"lo1":-89.0895,"lo2":-89.0444,"dy":0.0017,"dx":0.0017,"nx":28,"ny":28,"refTime":"2025-03-20T21:00:00:Z","depth":"0","parameterNumber":2,"parameterNumberName":"U-component_of_CURRENTS"},"data":[0,0,0,0,0,0,0,0,0,0,0,0,0,0,0,0,0,0,0,0,0,0,0,0,0,0,0,0,0,0,0,0,0,0,0,0,0,0,0,0,0,0,0,0,0,0,0,0,0,0,0,0,0,0,0,0,0,0,0.291,0.2911,0,0.2972,0.2972,0.2972,0.2954,0.2953,0.2952,0.2951,0.2964,0.2965,0.2966,0,0,0,0,0,0,0,0,0,0,0,0,0,0.2868,0.2868,0.291,0.2911,0.2912,0.2972,0.2972,0.2973,0.2954,0.2953,0.2952,0.2951,0.2964,0.2965,0.2966,0,0,0,0,0,0,0,0,0,0,0,0,0,0.2899,0.2868,0.291,0.2913,0.2914,0.2972,0.2972,0.2973,0.2954,0.2953,0.2952,0.295,0.2963,0.2965,0.2967,0.3005,0,0,0.2972,0.2973,0,0,0,0,0,0,0,0,0.2898,0.29,0.2912,0.2913,0.2915,0.2957,0.2962,0.2983,0.2955,0.2935,0.2951,0.295,0.2961,0.2963,0.2972,0.3006,0.3006,0.2972,0.2973,0.2974,0.2975,0,0,0,0,0,0,0,0.2895,0.2898,0.293,0.2913,0.2915,0.2944,0.2945,0.2966,0.2951,0.2937,0.2936,0.295,0.2961,0.2971,0.2972,0.3006,0.2972,0.2974,0.2975,0.2976,0.3092,0.3094,0,0,0,0,0,0,0.2893,0.2896,0.2928,0.2933,0.2907,0.2945,0.2947,0.2942,0.2952,0.2953,0.2951,0.2949,0.2968,0.297,0.2973,0.3024,0.2974,0.2976,0.2977,0.309,0.3092,0.3094,0,0,0,0,0,0,0.2891,0.2894,0.2926,0.292,0.2926,0.2947,0.2942,0.2944,0.295,0.2964,0.2964,0.2955,0.2967,0.297,0.2999,0.3024,0.2977,0.2978,0.3087,0.309,0.3093,0.3123,0,0,0,0,0,0,0.2889,0.2893,0.2887,0.2919,0.2927,0.2961,0.2944,0.2946,0.2963,0.296,0.2968,0.2968,0.2966,0.2996,0.3,0.3025,0.298,0.3085,0.3089,0.3092,0.3119,0.3126,0.3132,0,0,0,0,0,0.2887,0.2885,0.2886,0.289,0.2918,0.2962,0.2968,0.2976,0.2964,0.2974,0.2983,0.2967,0.3023,0.2999,0.3004,0.303,0.3083,0.3088,0.3092,0.3116,0.3125,0.3132,0,0,0,0,0,0,0.2854,0.2885,0.2886,0.2889,0.2924,0.296,0.2972,0.298,0.2996,0.2988,0.299,0.2993,0.3026,0.3032,0.3006,0.3078,0.3052,0.3058,0.3069,0.3078,0.3084,0.3052,0.2981,0,0,0,0,0,0.2849,0.2859,0.2894,0.2899,0.2915,0.2944,0.2961,0.2971,0.2994,0.2998,0.3008,0.3025,0.3053,0.3065,0.3086,0.3126,0.3123,0.3149,0.3156,0.3161,0.3141,0.3182,0.319,0.3109,0.3109,0.3109,0,0,0.2842,0.2858,0.2865,0.2895,0.2918,0.2945,0.2949,0.2979,0.3003,0.2999,0.3026,0.3045,0.3069,0.3111,0.3128,0.3116,0.3186,0.3167,0.3171,0.3147,0.3188,0.3195,0.3202,0.3112,0.3112,0.3111,0,0,0.2839,0.2844,0.2854,0.2885,0.2925,0.2948,0.2957,0.2997,0.3013,0.3054,0.3058,0.3087,0.3132,0.315,0.3167,0.3226,0.3217,0.3246,0.3254,0.3296,0.3302,0.3307,0.3316,0.3321,0.3252,0.3252,0.3252,0,0.2831,0.2839,0.2867,0.2888,0.2914,0.2947,0.297,0.3001,0.3046,0.3069,0.3064,0.3133,0.3147,0.3198,0.3217,0.3237,0.3251,0.3218,0.3301,0.3306,0.3311,0.3319,0.3325,0.3254,0.3254,0.3254,0.3254,0,0.2836,0.2849,0.2861,0.2894,0.2927,0.2956,0.3005,0.3038,0.3062,0.3093,0.3148,0.3174,0.3209,0.3234,0.3239,0.3293,0.3288,0.3301,0.3272,0.3321,0.3327,0.3332,0.3257,0.3256,0.3256,0.3255,0,0,0.2803,0.2855,0.2858,0.2876,0.2933,0.2959,0.3011,0.307,0.3104,0.3146,0.3193,0.3236,0.3244,0.3262,0.3283,0.3315,0.3362,0.3321,0.3322,0.3313,0.3438,0.3323,0.3318,0.3398,0.3399,0.34,0.3428,0,0.28,0.2834,0.2863,0.29,0.2926,0.2978,0.3022,0.308,0.3136,0.3192,0.323,0.328,0.3261,0.3289,0.3313,0.3363,0.3378,0.3351,0.3405,0.3406,0.3285,0.3321,0.3202,0.3207,0.3433,0.3434,0.3435,0,0.2792,0.282,0.2851,0.2909,0.2923,0.2946,0.3027,0.3074,0.3167,0.321,0.326,0.3303,0.3354,0.3336,0.3399,0.3389,0.3398,0.3422,0.3424,0.3301,0.3301,0.3198,0.3208,0.3184,0.3443,0.3442,0.3441,0,0.2756,0.2811,0.2831,0.2852,0.2921,0.2944,0.2983,0.3074,0.313,0.3228,0.3285,0.3339,0.3381,0.3414,0.3447,0.3441,0.351,0.3516,0.3409,0.3401,0.3296,0.3275,0.3267,0.3536,0.3536,0.3536,0.3536,0,0.2743,0.2755,0.2813,0.2823,0.2851,0.2913,0.2962,0.302,0.3122,0.3178,0.3278,0.3334,0.3407,0.3462,0.3471,0.3446,0.3527,0.3394,0.34,0.3303,0.3284,0.3252,0.3243,0.3537,0.3536,0.3536,0.3536,0,0.2687,0.273,0.2749,0.2811,0.283,0.2847,0.2937,0.2985,0.309,0.3173,0.3212,0.3349,0.3401,0.3455,0.3513,0.3464,0.3379,0.3436,0.3294,0.3278,0.3109,0.3105,0.2934,0.286,0.3312,0.3309,0.3307,0,0.2646,0.2657,0.2714,0.273,0.2748,0.2795,0.2834,0.2944,0.3003,0.3165,0.3198,0.3307,0.3337,0.3382,0.334,0.3317,0.3277,0.3179,0.3123,0.3064,0.3067,0.2964,0.291,0.3013,0.3008,0.3004,0.3001,0,0.257,0.2595,0.2618,0.2659,0.269,0.2732,0.2795,0.2837,0.2962,0.3029,0.3113,0.3164,0.321,0.3136,0.3111,0.3087,0.3038,0.3096,0.3099,0.286,0.2686,0.2631,0.3022,0.2969,0.2972,0.2974,0.2976,0.2977,0.2498,0.2503,0.2551,0.2573,0.2614,0.2649,0.2638,0.2713,0.2762,0.2807,0.2935,0.2929,0.2976,0.2916,0.2878,0.277,0.2765,0.2702,0.2713,0.2622,0.2496,0.2776,0.2686,0.2687,0.2688,0.269,0.2691,0,0.2419,0.2448,0.2467,0.2496,0.2493,0.2552,0.2591,0.2548,0.2525,0.2598,0.2613,0.2624,0.2573,0.2606,0.2549,0.2447,0.235,0.2397,0.2279,0.2256,0.2577,0.2512,0.2302,0.2302,0.2302,0.2302,0.2302,0.2302,0.239,0.2387,0.24,0.2364,0.2372,0.2322,0.2306,0.2248,0.2256,0.2191,0.2173,0.2226,0.2405,0.2446,0.2363,0.2294,0.2177,0.2023,0.2062,0.2371,0.2402,0.2432,0.2371,0.2135,0.2135,0.1653,0.165,0.1648]},{"header":{"parameterUnit":"m.s-1","parameterCategory":2,"la1":30.2991,"la2":30.254,"lo1":-89.0895,"lo2":-89.0444,"dy":0.0017,"dx":0.0017,"nx":28,"ny":28,"refTime":"2025-03-20T21:00:00:Z","depth":"0","parameterNumber":3,"parameterNumberName":"V-component_of_CURRENTS"},"data":[0,0,0,0,0,0,0,0,0,0,0,0,0,0,0,0,0,0,0,0,0,0,0,0,0,0,0,0,0,0,0,0,0,0,0,0,0,0,0,0,0,0,0,0,0,0,0,0,0,0,0,0,0,0,0,0,0,0,0.0093,0.0092,0,0.0061,0.0061,0.0061,0.0026,0.0025,0.0025,0.0024,-0.0001,-0.0001,-0.0001,0,0,0,0,0,0,0,0,0,0,0,0,0,0.0115,0.0115,0.0093,0.0092,0.0092,0.0061,0.0061,0.0061,0.0026,0.0025,0.0025,0.0024,-0.0,-0.0001,-0.0001,0,0,0,0,0,0,0,0,0,0,0,0,0,0.0097,0.0115,0.0093,0.0071,0.0068,0.0061,0.0061,0.006,0.0026,0.0025,0.0024,0.0024,-0.0,-0.0001,-0.0001,0.0014,0,0,-0.0002,-0.0002,0,0,0,0,0,0,0,0,0.0098,0.0096,0.0074,0.0072,0.0069,0.0046,0.006,0.0045,0.0026,0.0042,0.0024,0.0023,0.0016,0.0015,0.0011,0.0012,0.0011,-0.0002,-0.0002,-0.0002,-0.0002,0,0,0,0,0,0,0,0.01,0.0098,0.008,0.0074,0.0071,0.006,0.0057,0.0057,0.0034,0.0041,0.0038,0.0035,0.0015,0.0011,0.001,0.0011,-0.0002,-0.0002,-0.0002,-0.0002,0.0034,0.0035,0,0,0,0,0,0,0.0104,0.0099,0.0081,0.0079,0.0082,0.006,0.0056,0.0055,0.0034,0.003,0.0035,0.0033,0.0012,0.001,0.0009,0.004,-0.0002,-0.0002,-0.0002,0.0033,0.0034,0.0035,0,0,0,0,0,0,0.0105,0.0103,0.0083,0.0088,0.0085,0.0061,0.0059,0.0055,0.0048,0.003,0.0026,0.0033,0.0011,0.0009,0.0016,0.0038,-0.0002,-0.0002,0.0031,0.0033,0.0034,0.0092,0,0,0,0,0,0,0.0106,0.0104,0.0105,0.0089,0.0084,0.009,0.006,0.0055,0.0047,0.0044,0.0027,0.0024,0.001,0.0016,0.0016,0.0037,-0.0003,0.003,0.0032,0.0034,0.0088,0.0095,0.0101,0,0,0,0,0,0.0107,0.0119,0.0106,0.0104,0.0087,0.0091,0.0089,0.0069,0.0048,0.0057,0.0042,0.0024,0.0029,0.0017,0.0016,0.0037,0.0029,0.0031,0.0034,0.0085,0.0094,0.01,0,0,0,0,0,0,0.0133,0.0116,0.0101,0.0107,0.0103,0.0085,0.0089,0.0072,0.0067,0.0061,0.0037,0.0035,0.0048,0.0037,0.0024,0.0054,0.0026,0.0029,0.0066,0.0074,0.008,0.0097,-0.0003,0,0,0,0,0,0.0138,0.0139,0.0125,0.013,0.0129,0.0108,0.0105,0.0093,0.0084,0.0079,0.0066,0.0056,0.0059,0.006,0.0059,0.0076,0.0061,0.009,0.0096,0.0101,0.0116,0.0116,0.0124,0.0043,0.0043,0.0043,0,0,0.0148,0.014,0.0139,0.0135,0.0126,0.0139,0.0104,0.0107,0.012,0.0079,0.0092,0.0077,0.0068,0.0087,0.0092,0.0079,0.0113,0.0105,0.0109,0.0121,0.012,0.0128,0.0135,0.0045,0.0044,0.0044,0,0,0.0177,0.0162,0.0176,0.0178,0.0172,0.0162,0.0165,0.0152,0.0149,0.0161,0.0135,0.0135,0.0135,0.0136,0.0136,0.0177,0.0144,0.0172,0.0221,0.0222,0.0228,0.0234,0.021,0.0213,0.0178,0.0178,0.0178,0,0.0189,0.0205,0.0183,0.0203,0.0211,0.0177,0.0203,0.0199,0.019,0.0204,0.0175,0.0182,0.0163,0.0197,0.0204,0.0193,0.0176,0.0192,0.023,0.0235,0.024,0.0214,0.0217,0.0181,0.0181,0.018,0.018,0,0.0234,0.0246,0.0258,0.0268,0.0276,0.0293,0.0287,0.0295,0.028,0.0279,0.0301,0.0272,0.0278,0.027,0.0247,0.0279,0.0249,0.0234,0.0211,0.0252,0.0221,0.0223,0.0185,0.0184,0.0183,0.0182,0,0,0.026,0.0284,0.0288,0.031,0.0314,0.033,0.0356,0.0382,0.0412,0.0393,0.0433,0.0417,0.0391,0.0389,0.0356,0.0352,0.0355,0.0309,0.0307,0.0284,0.0338,0.0296,0.0293,0.0344,0.0345,0.0346,0.0297,0,0.0302,0.0357,0.0355,0.0408,0.0437,0.0428,0.0462,0.048,0.0483,0.0512,0.0488,0.0509,0.0439,0.0442,0.0424,0.0381,0.0365,0.0369,0.0303,0.0301,0.0258,0.0296,0.0305,0.0261,0.0299,0.0299,0.0299,0,0.0348,0.038,0.044,0.0491,0.0504,0.053,0.0583,0.0612,0.0641,0.0647,0.065,0.0624,0.0615,0.0549,0.0486,0.0489,0.0419,0.0375,0.0371,0.0318,0.0263,0.0229,0.0262,0.0171,0.0302,0.0301,0.0301,0,0.0386,0.0441,0.0493,0.0509,0.0558,0.0591,0.0619,0.0656,0.0706,0.0735,0.0771,0.0737,0.0733,0.0652,0.0533,0.0516,0.0459,0.0424,0.0318,0.0313,0.0302,0.0294,0.0242,0.0385,0.0386,0.0386,0.0386,0,0.0434,0.0476,0.0516,0.0547,0.0625,0.0641,0.0725,0.0749,0.0807,0.0886,0.084,0.0883,0.0761,0.0705,0.058,0.0453,0.0489,0.0337,0.0309,0.0319,0.0314,0.0218,0.0147,0.0384,0.0384,0.0385,0.0385,0,0.0468,0.049,0.0558,0.0619,0.0643,0.0701,0.0795,0.0863,0.0901,0.1001,0.1019,0.1003,0.0928,0.0786,0.0657,0.0524,0.0339,0.0346,0.035,0.0323,0.0132,0.0064,-0.0036,-0.0079,0.0228,0.0227,0.0226,0,0.0494,0.053,0.0608,0.0658,0.0688,0.0773,0.0842,0.0905,0.0987,0.1079,0.114,0.11,0.1085,0.0862,0.0633,0.0415,0.0307,0.0269,0.0239,0.0134,0.0037,-0.0006,-0.0037,0.0237,0.0236,0.0236,0.0235,0,0.0548,0.0568,0.0623,0.0719,0.0796,0.0896,0.0997,0.1079,0.1171,0.1251,0.1338,0.1333,0.1122,0.0912,0.0602,0.0442,0.02,0.0247,0.0155,0.0057,-0.0007,-0.0066,0.0234,0.0229,0.023,0.023,0.0231,0.0231,0.0585,0.0632,0.0699,0.0793,0.0886,0.1012,0.111,0.1223,0.1358,0.149,0.1473,0.1487,0.1184,0.0767,0.0534,0.0146,0.0141,0.0037,-0.0035,-0.0065,-0.011,0.0161,0.0113,0.0113,0.0113,0.0112,0.0112,0,0.0633,0.0686,0.0774,0.0891,0.1001,0.1042,0.1215,0.1321,0.1483,0.158,0.1641,0.1506,0.1122,0.0739,0.0213,-0.0062,-0.0153,-0.021,-0.0252,-0.0268,-0.0004,-0.0005,-0.0099,-0.0099,-0.0099,-0.0099,-0.0099,-0.0099,0.0659,0.0743,0.0786,0.0965,0.1056,0.1219,0.1325,0.1474,0.1583,0.1703,0.1721,0.1718,0.1445,0.0471,-0.0136,-0.028,-0.0445,-0.0516,-0.0592,-0.04,-0.0381,-0.0363,-0.0378,-0.0549,-0.0549,-0.0795,-0.0798,-0.08]}],[{"header":{"parameterUnit":"m.s-1","parameterCategory":2,"la1":30.2991,"la2":30.254,"lo1":-89.0895,"lo2":-89.0444,"dy":0.0017,"dx":0.0017,"nx":28,"ny":28,"refTime":"2025-03-20T21:00:00:Z","depth":"2","parameterNumber":2,"parameterNumberName":"U-component_of_CURRENTS"},"data":[0,0,0,0,0,0,0,0,0,0,0,0,0,0,0,0,0,0,0,0,0,0,0,0,0,0,0,0,0,0,0,0,0,0,0,0,0,0,0,0,0,0,0,0,0,0,0,0,0,0,0,0,0,0,0,0,0,0,0.226,0.226,0,0.2296,0.2296,0.2297,0.2319,0.2319,0.2319,0.2318,0.2341,0.2342,0.2343,0,0,0,0,0,0,0,0,0,0,0,0,0,0.2264,0.2263,0.226,0.226,0.226,0.2296,0.2296,0.2297,0.2319,0.2319,0.2319,0.2318,0.2341,0.2342,0.2343,0,0,0,0,0,0,0,0,0,0,0,0,0,0.2281,0.2263,0.226,0.2273,0.2274,0.2295,0.2296,0.2298,0.2319,0.2319,0.2319,0.2318,0.2341,0.2342,0.2343,0.2358,0,0,0.2347,0.2348,0,0,0,0,0,0,0,0,0.2279,0.2281,0.2271,0.2272,0.2273,0.2299,0.2306,0.2316,0.2319,0.2306,0.2318,0.2318,0.2324,0.2326,0.234,0.2359,0.236,0.2347,0.2348,0.2348,0.2349,0,0,0,0,0,0,0,0.2278,0.228,0.2278,0.2271,0.2272,0.2294,0.2296,0.2308,0.2319,0.2307,0.2308,0.2306,0.2325,0.2338,0.234,0.2361,0.2347,0.2348,0.2349,0.2349,0.249,0.2493,0,0,0,0,0,0,0.2263,0.2278,0.2277,0.2279,0.2271,0.2294,0.2296,0.2294,0.232,0.2322,0.2306,0.2307,0.2337,0.2339,0.2341,0.2403,0.2348,0.235,0.235,0.2487,0.2491,0.2494,0,0,0,0,0,0,0.2263,0.2263,0.2276,0.2276,0.2279,0.2293,0.2292,0.2295,0.233,0.2318,0.2321,0.2339,0.2336,0.2339,0.2396,0.2402,0.235,0.2351,0.2483,0.2488,0.2492,0.25,0,0,0,0,0,0,0.2263,0.2263,0.2263,0.2275,0.2278,0.2318,0.2292,0.2296,0.2326,0.2328,0.2347,0.2347,0.2336,0.2395,0.2397,0.2403,0.2352,0.248,0.2485,0.2491,0.2496,0.2504,0.2511,0,0,0,0,0,0.2264,0.2265,0.2263,0.2263,0.2275,0.232,0.2326,0.2336,0.2328,0.2363,0.2382,0.2348,0.2431,0.2399,0.2401,0.2407,0.2477,0.2484,0.249,0.2492,0.2502,0.2511,0,0,0,0,0,0,0.226,0.2268,0.2265,0.2267,0.2303,0.2323,0.2344,0.2354,0.2396,0.2389,0.2388,0.2392,0.2434,0.2444,0.2408,0.2473,0.2448,0.2455,0.2449,0.2458,0.2466,0.2456,0.2353,0,0,0,0,0,0.2259,0.2269,0.2287,0.2294,0.2312,0.2334,0.2352,0.236,0.239,0.2408,0.242,0.244,0.2462,0.2481,0.2497,0.2541,0.2543,0.2553,0.256,0.2566,0.2567,0.2602,0.2611,0.2516,0.2516,0.2516,0,0,0.2256,0.2263,0.2267,0.2296,0.232,0.2346,0.2347,0.238,0.2408,0.2402,0.2451,0.246,0.2482,0.2521,0.2542,0.2532,0.2596,0.2575,0.2579,0.2576,0.261,0.2619,0.2626,0.252,0.2519,0.2519,0,0,0.226,0.2272,0.2283,0.2314,0.2346,0.2367,0.2384,0.2418,0.2447,0.2503,0.2491,0.2525,0.2572,0.258,0.2592,0.2664,0.2629,0.2667,0.2697,0.2731,0.2738,0.2744,0.2749,0.2755,0.2677,0.2677,0.2677,0,0.226,0.2268,0.2299,0.2319,0.234,0.238,0.2403,0.2444,0.2492,0.2511,0.2527,0.2588,0.26,0.2635,0.2659,0.2673,0.268,0.2647,0.2736,0.2742,0.2748,0.2751,0.2758,0.2678,0.2678,0.2678,0.2678,0,0.2266,0.2282,0.23,0.2335,0.237,0.2404,0.2451,0.2494,0.2532,0.2554,0.2614,0.2651,0.2686,0.2695,0.2699,0.2742,0.2726,0.2728,0.2696,0.2757,0.2758,0.2765,0.268,0.268,0.2679,0.2679,0,0,0.2253,0.2294,0.2305,0.2316,0.2379,0.2405,0.2466,0.2525,0.2565,0.2617,0.2672,0.2716,0.2725,0.2743,0.2749,0.2783,0.2826,0.2776,0.2777,0.2752,0.2881,0.2782,0.278,0.2836,0.2838,0.2839,0.2859,0,0.2259,0.2288,0.2312,0.2351,0.2374,0.2425,0.2482,0.2532,0.2604,0.2671,0.2708,0.2762,0.2749,0.2775,0.2805,0.2826,0.2847,0.2819,0.2852,0.2853,0.2734,0.2786,0.2587,0.2581,0.2866,0.2867,0.2868,0,0.2251,0.2281,0.2309,0.2356,0.2372,0.2406,0.2499,0.2553,0.2646,0.2702,0.2756,0.279,0.284,0.2839,0.289,0.2872,0.2876,0.2889,0.289,0.2798,0.2767,0.2573,0.2582,0.2879,0.2878,0.2877,0.2876,0,0.222,0.2271,0.2292,0.2309,0.2375,0.2408,0.2461,0.2557,0.2611,0.2727,0.2772,0.2837,0.2885,0.2912,0.2928,0.292,0.2979,0.2974,0.2882,0.2874,0.2711,0.2686,0.3007,0.3007,0.3007,0.3007,0.3007,0,0.2203,0.223,0.2281,0.2297,0.2339,0.2392,0.246,0.2534,0.2637,0.269,0.2779,0.2836,0.2909,0.2944,0.2949,0.2927,0.2994,0.2888,0.2879,0.2709,0.2684,0.2951,0.2945,0.3007,0.3007,0.3007,0.3007,0,0.2157,0.2199,0.2219,0.2288,0.2318,0.2348,0.2446,0.2499,0.2605,0.2687,0.272,0.2843,0.2891,0.2925,0.2983,0.2943,0.2945,0.2913,0.2692,0.2656,0.281,0.2804,0.2824,0.2821,0.2818,0.2816,0.2814,0,0.2124,0.213,0.219,0.2216,0.2254,0.2314,0.2365,0.2478,0.2538,0.2677,0.2709,0.2795,0.2823,0.2858,0.2831,0.2806,0.2877,0.2594,0.2544,0.2805,0.2795,0.2793,0.2791,0.2333,0.2327,0.2323,0.2319,0,0.2067,0.2089,0.2115,0.2166,0.2218,0.225,0.2335,0.2364,0.2489,0.2542,0.2612,0.2645,0.2697,0.2595,0.2574,0.2536,0.2585,0.2497,0.2844,0.2405,0.2342,0.2332,0.2346,0.2278,0.2282,0.2285,0.2287,0.2289,0.202,0.2016,0.2056,0.2099,0.2155,0.2174,0.2157,0.2241,0.2277,0.2323,0.2441,0.2412,0.245,0.2312,0.223,0.2169,0.2344,0.2243,0.2258,0.2278,0.2212,0.2148,0.2033,0.2035,0.2038,0.204,0.2042,0,0.1944,0.1968,0.1993,0.203,0.2036,0.21,0.212,0.2072,0.2053,0.2138,0.2156,0.1978,0.1913,0.1939,0.1786,0.1771,0.176,0.1695,0.1676,0.1718,0.1756,0.1664,0.134,0.1337,0.1335,0.1333,0,0,0.1916,0.1918,0.1924,0.1905,0.1923,0.1881,0.1847,0.1793,0.1802,0.1745,0.172,0.1855,0.1904,0.1612,0.1567,0.1429,0.1563,0.1369,0.1939,0.1962,0.1997,0.2083,0.1991,0,0,0,0,0]},{"header":{"parameterUnit":"m.s-1","parameterCategory":2,"la1":30.2991,"la2":30.254,"lo1":-89.0895,"lo2":-89.0444,"dy":0.0017,"dx":0.0017,"nx":28,"ny":28,"refTime":"2025-03-20T21:00:00:Z","depth":"2","parameterNumber":3,"parameterNumberName":"V-component_of_CURRENTS"},"data":[0,0,0,0,0,0,0,0,0,0,0,0,0,0,0,0,0,0,0,0,0,0,0,0,0,0,0,0,0,0,0,0,0,0,0,0,0,0,0,0,0,0,0,0,0,0,0,0,0,0,0,0,0,0,0,0,0,0,0.0112,0.0112,0,0.0091,0.0091,0.0091,0.0064,0.0063,0.0063,0.0063,0.005,0.005,0.005,0,0,0,0,0,0,0,0,0,0,0,0,0,0.0123,0.0123,0.0112,0.0112,0.0112,0.0091,0.0091,0.0091,0.0064,0.0063,0.0063,0.0062,0.005,0.005,0.005,0,0,0,0,0,0,0,0,0,0,0,0,0,0.0112,0.0123,0.0112,0.0096,0.0094,0.0091,0.0091,0.0091,0.0064,0.0063,0.0063,0.0062,0.005,0.005,0.005,0.0064,0,0,0.005,0.005,0,0,0,0,0,0,0,0,0.0112,0.0111,0.0099,0.0097,0.0095,0.008,0.009,0.0082,0.0064,0.0076,0.0063,0.0062,0.0061,0.006,0.0058,0.0063,0.0062,0.005,0.005,0.005,0.005,0,0,0,0,0,0,0,0.0113,0.0112,0.0104,0.0099,0.0096,0.0087,0.0085,0.0088,0.0072,0.0075,0.0073,0.007,0.006,0.0058,0.0057,0.0062,0.005,0.005,0.005,0.005,0.0072,0.0072,0,0,0,0,0,0,0.0117,0.0113,0.0105,0.0103,0.0102,0.0088,0.0085,0.0085,0.0072,0.0069,0.0071,0.0069,0.0058,0.0057,0.0057,0.008,0.005,0.005,0.0051,0.0071,0.0072,0.0072,0,0,0,0,0,0,0.0117,0.0116,0.0106,0.0107,0.0105,0.0088,0.0089,0.0085,0.0079,0.0069,0.0067,0.0068,0.0057,0.0056,0.0061,0.0079,0.0051,0.0051,0.0071,0.0071,0.0072,0.0122,0,0,0,0,0,0,0.0118,0.0117,0.0119,0.0108,0.0105,0.0113,0.0089,0.0085,0.0079,0.0076,0.0066,0.0064,0.0057,0.0061,0.0061,0.0079,0.0051,0.007,0.0071,0.0072,0.012,0.0124,0.0128,0,0,0,0,0,0.0118,0.0129,0.0119,0.0118,0.0108,0.0114,0.0113,0.0098,0.008,0.0087,0.0074,0.0064,0.0066,0.0061,0.0061,0.008,0.0069,0.0071,0.0072,0.0118,0.0123,0.0128,0,0,0,0,0,0,0.0137,0.0127,0.0116,0.0123,0.0121,0.011,0.0113,0.0099,0.0094,0.0089,0.0073,0.0071,0.0082,0.0072,0.0066,0.0087,0.0066,0.0067,0.0101,0.0106,0.011,0.0128,0.0051,0,0,0,0,0,0.0142,0.0144,0.0136,0.0141,0.0141,0.0125,0.0124,0.0115,0.0108,0.0104,0.0095,0.0086,0.0088,0.0089,0.0089,0.0102,0.0084,0.0112,0.0116,0.012,0.0134,0.012,0.0124,0.0076,0.0076,0.0076,0,0,0.0149,0.0145,0.0145,0.0145,0.0139,0.0152,0.0123,0.0127,0.014,0.0106,0.0117,0.0103,0.0094,0.0109,0.0113,0.0102,0.0122,0.0121,0.0125,0.0137,0.0122,0.0126,0.0131,0.0077,0.0077,0.0076,0,0,0.0174,0.0163,0.0176,0.018,0.0178,0.0172,0.0174,0.0165,0.0163,0.0172,0.015,0.0145,0.0147,0.0145,0.0144,0.0171,0.0145,0.0168,0.0207,0.0194,0.0198,0.0201,0.0174,0.0175,0.0171,0.0171,0.0171,0,0.0182,0.02,0.0182,0.0202,0.0211,0.0183,0.0208,0.0205,0.0199,0.0208,0.0184,0.0183,0.0167,0.0189,0.0195,0.0183,0.0165,0.0189,0.02,0.0203,0.0206,0.0177,0.0177,0.0173,0.0173,0.0173,0.0172,0,0.0223,0.0236,0.0247,0.026,0.0268,0.0285,0.0281,0.0288,0.0274,0.0271,0.0284,0.0257,0.0256,0.0248,0.023,0.0246,0.0223,0.0207,0.0189,0.0214,0.0182,0.0181,0.0177,0.0176,0.0175,0.0175,0,0,0.0243,0.027,0.0274,0.0295,0.0302,0.0317,0.034,0.036,0.0384,0.0363,0.0391,0.0373,0.0348,0.0344,0.0315,0.03,0.029,0.0265,0.0263,0.0242,0.025,0.0218,0.0213,0.0275,0.0275,0.0275,0.0217,0,0.028,0.0332,0.0333,0.0382,0.041,0.0402,0.0432,0.0445,0.0446,0.0464,0.0433,0.0445,0.0388,0.0388,0.0363,0.0316,0.0292,0.0307,0.0227,0.0225,0.0196,0.0213,0.0218,0.0166,0.0216,0.0215,0.0215,0,0.0321,0.0352,0.0409,0.0455,0.0467,0.0492,0.0537,0.0562,0.0578,0.0581,0.0574,0.0543,0.0521,0.0466,0.039,0.0401,0.0333,0.0285,0.0282,0.0238,0.0191,0.015,0.0162,0.0214,0.0214,0.0214,0.0214,0,0.0351,0.0405,0.0453,0.0469,0.0516,0.0544,0.057,0.0599,0.0641,0.0656,0.0677,0.0634,0.0622,0.0535,0.0417,0.0409,0.0325,0.03,0.0204,0.02,0.0183,0.0177,0.0248,0.0248,0.0248,0.0249,0.0249,0,0.0392,0.0432,0.0474,0.0503,0.0574,0.059,0.0665,0.0686,0.0731,0.0795,0.0737,0.0764,0.0641,0.057,0.0451,0.0322,0.0344,0.0219,0.019,0.0198,0.0195,0.0222,0.022,0.0246,0.0247,0.0247,0.0248,0,0.042,0.0444,0.0508,0.0566,0.0591,0.0644,0.0731,0.0792,0.0817,0.0895,0.0905,0.0868,0.0778,0.0631,0.0494,0.0376,0.0251,0.0196,0.0205,0.0179,0.0125,0.0126,0.0096,0.0094,0.0093,0.0092,0.0091,0,0.0442,0.0476,0.0553,0.0603,0.0633,0.0713,0.078,0.0834,0.0908,0.0964,0.1011,0.0945,0.091,0.0676,0.0467,0.0254,0.0231,0.0117,0.0104,0.0139,0.0113,0.0116,0.0118,0.0093,0.0092,0.0092,0.0091,0,0.0488,0.0509,0.0562,0.066,0.0735,0.083,0.0927,0.0997,0.1074,0.1121,0.1171,0.114,0.0928,0.0715,0.042,0.0274,0.015,0.0097,0.0139,0.0132,0.0131,0.0107,0.0111,0.0085,0.0086,0.0086,0.0086,0.0087,0.0521,0.0565,0.0633,0.0729,0.082,0.094,0.1026,0.1126,0.1231,0.1316,0.1284,0.1234,0.0998,0.0618,0.0362,0.0099,0.0122,0.0025,0.0029,0.0033,0.0045,0.0042,-0.002,-0.002,-0.002,-0.002,-0.002,0,0.0566,0.0618,0.0705,0.0821,0.0929,0.0971,0.1124,0.1206,0.1326,0.1383,0.1403,0.1159,0.0909,0.0634,0.0244,0.0014,0.0001,-0.0067,-0.0029,-0.0022,-0.0016,-0.0005,-0.0084,-0.0085,-0.0085,-0.0086,0,0,0.0591,0.0673,0.0717,0.0891,0.0982,0.1132,0.122,0.1323,0.1392,0.1432,0.14,0.1335,0.0995,0.0701,0.0379,0.0151,0.012,0.0101,0.0176,0.0267,0.0276,0.0058,0.0084,0,0,0,0,0]}],[{"header":{"parameterUnit":"m.s-1","parameterCategory":2,"la1":30.2991,"la2":30.254,"lo1":-89.0895,"lo2":-89.0444,"dy":0.0017,"dx":0.0017,"nx":28,"ny":28,"refTime":"2025-03-20T21:00:00:Z","depth":"4","parameterNumber":2,"parameterNumberName":"U-component_of_CURRENTS"},"data":[0,0,0,0,0,0,0,0,0,0,0,0,0,0,0,0,0,0,0,0,0,0,0,0,0,0,0,0,0,0,0,0,0,0,0,0,0,0,0,0,0,0,0,0,0,0,0,0,0,0,0,0,0,0,0,0,0,0,0.1147,0.1147,0,0.1151,0.1152,0.1152,0.1207,0.1208,0.1209,0.121,0.1288,0.1289,0.129,0,0,0,0,0,0,0,0,0,0,0,0,0,0.1124,0.1125,0.1147,0.1147,0.1146,0.1151,0.1152,0.1152,0.1207,0.1208,0.1209,0.1211,0.1287,0.1288,0.129,0,0,0,0,0,0,0,0,0,0,0,0,0,0.1134,0.1125,0.1147,0.1173,0.1175,0.1151,0.1152,0.1152,0.1206,0.1208,0.121,0.1211,0.1287,0.1288,0.129,0.1263,0,0,0.1294,0.1295,0,0,0,0,0,0,0,0,0.1133,0.1135,0.1169,0.1171,0.1173,0.1178,0.1172,0.1192,0.1206,0.1197,0.121,0.1212,0.1255,0.1259,0.1258,0.1267,0.127,0.1294,0.1295,0.1296,0.1296,0,0,0,0,0,0,0,0.1133,0.1135,0.1151,0.1169,0.1171,0.1163,0.1167,0.1176,0.1219,0.1198,0.1201,0.1197,0.1257,0.1257,0.1261,0.1271,0.1294,0.1296,0.1296,0.1297,0.1391,0.1392,0,0,0,0,0,0,0.1129,0.1134,0.1151,0.1151,0.1155,0.1162,0.1167,0.1177,0.1217,0.1224,0.1196,0.12,0.1253,0.1259,0.1264,0.1356,0.1296,0.1297,0.1298,0.1389,0.1391,0.1393,0,0,0,0,0,0,0.1129,0.1131,0.1151,0.114,0.1142,0.1161,0.1171,0.1176,0.1215,0.1215,0.1224,0.1235,0.1255,0.1262,0.131,0.1356,0.1298,0.1299,0.1387,0.139,0.1392,0.1464,0,0,0,0,0,0,0.1128,0.1131,0.115,0.114,0.1142,0.1166,0.1169,0.1175,0.1207,0.1213,0.1251,0.1257,0.1257,0.1308,0.1311,0.1356,0.13,0.1385,0.1388,0.1391,0.146,0.1469,0.1476,0,0,0,0,0,0.1128,0.113,0.1151,0.1153,0.1164,0.1166,0.1168,0.1187,0.1207,0.1229,0.1259,0.1258,0.133,0.131,0.1314,0.1361,0.1384,0.1388,0.1391,0.1456,0.1467,0.1476,0,0,0,0,0,0,0.1123,0.1135,0.1158,0.1166,0.1184,0.1176,0.1184,0.1207,0.1244,0.1262,0.1273,0.1281,0.1341,0.1337,0.1315,0.1396,0.1359,0.1364,0.1407,0.1417,0.1426,0.1413,0.1301,0,0,0,0,0,0.1132,0.1148,0.1159,0.1171,0.1177,0.1193,0.1201,0.1223,0.1243,0.1263,0.1285,0.1315,0.1349,0.1375,0.1391,0.1432,0.1422,0.1467,0.1475,0.1482,0.1475,0.1501,0.1511,0.1405,0.1405,0.1405,0,0,0.1131,0.1142,0.1152,0.1173,0.1183,0.1197,0.1204,0.1227,0.1253,0.1264,0.1309,0.1342,0.1365,0.1415,0.1442,0.1426,0.151,0.1487,0.1493,0.1481,0.1506,0.1516,0.1525,0.1407,0.1407,0.1407,0,0,0.1127,0.1151,0.1165,0.1185,0.1212,0.1217,0.1236,0.1255,0.1282,0.1325,0.1349,0.1409,0.1444,0.1478,0.1498,0.156,0.155,0.1578,0.1617,0.1644,0.1652,0.166,0.167,0.1677,0.1587,0.1587,0.1587,0,0.1138,0.1151,0.1169,0.1189,0.1203,0.1233,0.1253,0.1274,0.1314,0.1343,0.1352,0.1439,0.147,0.154,0.1575,0.158,0.1586,0.1579,0.1654,0.1661,0.1667,0.1676,0.1683,0.1591,0.1591,0.159,0.159,0,0.1139,0.1165,0.1168,0.1209,0.1231,0.1249,0.1279,0.1317,0.1353,0.1381,0.146,0.1499,0.1562,0.1588,0.1607,0.1682,0.167,0.1659,0.1627,0.1682,0.1688,0.1695,0.1597,0.1595,0.1594,0.1593,0,0,0.1131,0.1165,0.1174,0.1199,0.1247,0.1261,0.1307,0.1353,0.1397,0.1448,0.1509,0.1586,0.163,0.1656,0.1695,0.1723,0.1793,0.1723,0.1722,0.1729,0.1847,0.1739,0.1735,0.1802,0.1803,0.1804,0.1836,0,0.1135,0.1164,0.1187,0.1228,0.1241,0.1291,0.1328,0.1387,0.1435,0.15,0.1562,0.1635,0.1649,0.1709,0.1743,0.1789,0.1812,0.1784,0.1794,0.1794,0.1688,0.174,0.1809,0.1841,0.1842,0.1843,0.1844,0,0.1132,0.1152,0.1185,0.1239,0.1253,0.129,0.1367,0.1412,0.1506,0.1556,0.1639,0.1687,0.1782,0.1769,0.1849,0.1836,0.1851,0.1856,0.1858,0.173,0.1697,0.1771,0.1855,0.1854,0.1854,0.1853,0.1852,0,0.1102,0.1152,0.1177,0.1197,0.1262,0.1302,0.135,0.1437,0.1493,0.1608,0.1663,0.1758,0.183,0.1858,0.1905,0.1892,0.1956,0.1936,0.1835,0.1828,0.1882,0.1874,0.1961,0.1961,0.1961,0.1961,0.1961,0,0.1077,0.1101,0.117,0.1186,0.1236,0.1298,0.1372,0.1436,0.1545,0.1612,0.1704,0.1759,0.1857,0.1908,0.1923,0.1906,0.1979,0.1841,0.183,0.1913,0.1908,0.1887,0.1878,0.1962,0.1962,0.1962,0.1962,0,0.1021,0.1066,0.1104,0.1186,0.1221,0.1263,0.1383,0.1425,0.1542,0.1634,0.168,0.1798,0.1861,0.1917,0.1975,0.1923,0.1918,0.1885,0.1976,0.197,0.1762,0.1757,0.1768,0.1764,0.1761,0.1759,0.1757,0,0.0984,0.0998,0.11,0.1125,0.1163,0.1242,0.1286,0.1418,0.1465,0.163,0.1654,0.177,0.183,0.1823,0.1888,0.1895,0.1868,0.1845,0.179,0.1755,0.1744,0.1743,0.1742,0.1752,0.1751,0.1751,0.175,0,0.0916,0.0968,0.1002,0.1061,0.1112,0.1164,0.1242,0.1283,0.1426,0.1539,0.1605,0.1649,0.171,0.1755,0.1779,0.1775,0.1852,0.1813,0.1818,0.1766,0.1736,0.1728,0.173,0.1739,0.1741,0.1742,0.1742,0,0.0881,0.088,0.0941,0.0982,0.1037,0.1063,0.1126,0.1185,0.1267,0.1451,0.1469,0.1586,0.17,0.1692,0.1712,0.171,0.1673,0.1603,0.1618,0.163,0.1569,0.1509,0.1435,0,0,0,0,0,0.0842,0.0829,0.0852,0.0888,0.0933,0.098,0.1075,0.114,0.1287,0.1296,0.1391,0.1444,0.1496,0.1552,0.152,0.1631,0.1667,0.1583,0.1591,0.1682,0.1694,0.1635,0,0,0,0,0,0,0.0812,0.0828,0.0824,0.0803,0.0813,0.0856,0.0926,0.1024,0.1043,0.1199,0.1236,0.1345,0.1413,0.1502,0.1489,0.1505,0.1476,0.166,0.1656,0.1675,0.1686,0.1696,0.1639,0,0,0,0,0]},{"header":{"parameterUnit":"m.s-1","parameterCategory":2,"la1":30.2991,"la2":30.254,"lo1":-89.0895,"lo2":-89.0444,"dy":0.0017,"dx":0.0017,"nx":28,"ny":28,"refTime":"2025-03-20T21:00:00:Z","depth":"4","parameterNumber":3,"parameterNumberName":"V-component_of_CURRENTS"},"data":[0,0,0,0,0,0,0,0,0,0,0,0,0,0,0,0,0,0,0,0,0,0,0,0,0,0,0,0,0,0,0,0,0,0,0,0,0,0,0,0,0,0,0,0,0,0,0,0,0,0,0,0,0,0,0,0,0,0,0.0151,0.0151,0,0.0156,0.0156,0.0156,0.0149,0.0148,0.0148,0.0148,0.0151,0.0151,0.0152,0,0,0,0,0,0,0,0,0,0,0,0,0,0.0137,0.0138,0.0151,0.0151,0.0151,0.0156,0.0156,0.0156,0.0149,0.0148,0.0148,0.0147,0.0151,0.0151,0.0152,0,0,0,0,0,0,0,0,0,0,0,0,0,0.0144,0.0138,0.0151,0.0147,0.0147,0.0156,0.0156,0.0156,0.0149,0.0148,0.0148,0.0147,0.0151,0.0151,0.0152,0.0166,0,0,0.0154,0.0154,0,0,0,0,0,0,0,0,0.0143,0.0144,0.0148,0.0147,0.0147,0.015,0.0152,0.0159,0.0149,0.0149,0.0148,0.0147,0.0151,0.0151,0.0154,0.0166,0.0166,0.0154,0.0154,0.0154,0.0155,0,0,0,0,0,0,0,0.0143,0.0144,0.0154,0.0148,0.0147,0.0146,0.0146,0.0154,0.0153,0.0149,0.0148,0.0148,0.015,0.0154,0.0154,0.0166,0.0154,0.0154,0.0155,0.0155,0.0165,0.0165,0,0,0,0,0,0,0.0141,0.0144,0.0153,0.0154,0.0143,0.0147,0.0147,0.015,0.0153,0.0153,0.0148,0.0147,0.0153,0.0154,0.0154,0.0165,0.0154,0.0155,0.0155,0.0165,0.0165,0.0165,0,0,0,0,0,0,0.0141,0.0142,0.0153,0.0148,0.0149,0.0147,0.0151,0.0151,0.0154,0.0152,0.0152,0.0151,0.0153,0.0153,0.0161,0.0165,0.0155,0.0156,0.0165,0.0165,0.0165,0.019,0,0,0,0,0,0,0.0141,0.0142,0.0146,0.0148,0.0149,0.0164,0.0152,0.0151,0.0154,0.0153,0.0155,0.0155,0.0152,0.016,0.0162,0.0166,0.0156,0.0165,0.0165,0.0165,0.0189,0.0191,0.0192,0,0,0,0,0,0.014,0.0151,0.0146,0.0147,0.0154,0.0165,0.0166,0.0163,0.0155,0.0163,0.0159,0.0155,0.016,0.0161,0.0163,0.0167,0.0165,0.0165,0.0165,0.0188,0.019,0.0192,0,0,0,0,0,0,0.0149,0.0151,0.0146,0.0156,0.0161,0.0163,0.017,0.0166,0.017,0.0167,0.0162,0.0162,0.0168,0.0163,0.0165,0.0167,0.0159,0.0159,0.0176,0.0178,0.0179,0.0186,0.0157,0,0,0,0,0,0.0151,0.0158,0.016,0.0168,0.0171,0.017,0.0173,0.0172,0.0174,0.0175,0.0175,0.017,0.0169,0.017,0.0171,0.0179,0.016,0.0178,0.018,0.0181,0.0186,0.0153,0.0152,0.0164,0.0164,0.0164,0,0,0.0156,0.0158,0.0161,0.017,0.0172,0.0184,0.0171,0.0181,0.019,0.0176,0.0188,0.0179,0.0172,0.0178,0.0179,0.0175,0.0167,0.0181,0.0182,0.0187,0.0153,0.0151,0.015,0.0164,0.0164,0.0164,0,0,0.0172,0.0171,0.0182,0.019,0.0196,0.0196,0.02,0.0204,0.0205,0.0216,0.0202,0.0194,0.0201,0.019,0.0187,0.0195,0.0176,0.0194,0.0209,0.0177,0.0175,0.0174,0.015,0.0146,0.0194,0.0194,0.0194,0,0.0176,0.0192,0.0188,0.0204,0.0212,0.0203,0.0221,0.0223,0.0228,0.0231,0.0224,0.0214,0.0206,0.0202,0.0203,0.0199,0.0181,0.0206,0.0179,0.0177,0.0175,0.015,0.0146,0.0195,0.0195,0.0195,0.0195,0,0.0202,0.0215,0.0225,0.0239,0.0248,0.0263,0.0264,0.0271,0.0267,0.0264,0.0262,0.0244,0.0238,0.0228,0.0222,0.0206,0.0198,0.0185,0.0176,0.0175,0.0149,0.0144,0.0197,0.0197,0.0196,0.0196,0,0,0.021,0.0238,0.0242,0.0258,0.0269,0.0282,0.0294,0.0305,0.0314,0.0304,0.0309,0.0291,0.0275,0.0269,0.0249,0.0218,0.0188,0.0201,0.0199,0.0181,0.0122,0.0118,0.0112,0.017,0.017,0.0169,0.0109,0,0.0232,0.0271,0.0276,0.0312,0.0332,0.0331,0.0348,0.0353,0.0349,0.0352,0.0319,0.032,0.0293,0.029,0.0254,0.021,0.0176,0.0206,0.0123,0.012,0.0119,0.0106,0.0167,0.0105,0.0104,0.0103,0.0103,0,0.0255,0.028,0.0321,0.0356,0.0365,0.0384,0.0406,0.0422,0.0416,0.0414,0.0394,0.0369,0.0334,0.0306,0.0221,0.0243,0.0188,0.0143,0.0139,0.0125,0.0107,0.0105,0.0093,0.0094,0.0095,0.0095,0.0096,0,0.0268,0.031,0.0346,0.0359,0.0395,0.0414,0.0434,0.044,0.0465,0.0453,0.0459,0.0407,0.0391,0.031,0.0221,0.0223,0.0118,0.0107,0.0047,0.0046,0.0058,0.0059,0.0037,0.0037,0.0038,0.0038,0.0038,0,0.0287,0.0316,0.0359,0.038,0.0431,0.0444,0.0492,0.05,0.0518,0.0546,0.0496,0.0493,0.0391,0.0319,0.023,0.0126,0.0122,0.0049,0.0028,0.007,0.0073,0.0054,0.0057,0.0036,0.0036,0.0036,0.0037,0,0.0292,0.0318,0.0367,0.0417,0.044,0.0477,0.0547,0.0579,0.0587,0.0617,0.0619,0.0564,0.0475,0.0358,0.0226,0.0148,0.004,-0.0,0.0057,0.0041,-0.0011,-0.0006,-0.0064,-0.0065,-0.0066,-0.0066,-0.0067,0,0.0298,0.0323,0.0397,0.0437,0.0465,0.0528,0.0577,0.0615,0.065,0.0657,0.067,0.0599,0.0544,0.0359,0.023,0.0055,0.0026,-0.0034,-0.0027,-0.0008,-0.0022,-0.0017,-0.0011,-0.0067,-0.0068,-0.0068,-0.0068,0,0.0311,0.0338,0.038,0.0464,0.0526,0.0598,0.0665,0.0699,0.0737,0.0739,0.0716,0.062,0.0518,0.037,0.023,0.0102,0.0004,-0.004,-0.004,-0.0034,-0.0013,-0.0025,-0.0019,-0.007,-0.007,-0.0069,-0.0069,0,0.0324,0.0354,0.0418,0.0491,0.057,0.0647,0.0684,0.0728,0.0767,0.0768,0.0757,0.0643,0.058,0.0393,0.0263,0.0138,0.0108,0.006,0.0055,0.0056,0.0104,0.015,0.0124,0,0,0,0,0,0.0339,0.0378,0.0444,0.0528,0.0604,0.0657,0.0734,0.0764,0.0795,0.0787,0.0777,0.0681,0.0498,0.0417,0.0294,0.0246,0.008,0.0095,0.0021,-0.0081,-0.0079,-0.0043,0,0,0,0,0,0,0.0351,0.0409,0.0443,0.0546,0.0608,0.07,0.0754,0.0777,0.0774,0.0777,0.0686,0.0639,0.0464,0.0569,0.0288,0.025,0.0183,0.0011,0.0008,-0.0082,-0.008,-0.0078,-0.0041,0,0,0,0,0]}]]